START_TIME,STEP,MOV.,AL01,t_acc.,AL02,t_acc.,E37,t_acc.,H21,t_acc.
1979-07-04 15:00:35.090 ,1,0,0.,24.0,0.,24.0,0.,24.0,0.,24.0
1979-07-04 15:00:59.090 ,2,1,0.,24.0,0.,24.0,0.,24.0,0.,24.0
1979-07-04 15:01:23.090 ,2,0,1.,24.0,0.,24.0,1.,24.0,0.,24.0
1979-07-04 15:01:47.090 ,3,1,0.,24.0,0.,24.0,0.,24.0,0.,24.0
1979-07-04 15:02:11.090 ,3,0,0.,24.0,0.,24.0,1.,24.0,0.,24.0
1979-07-04 15:02:35.090 ,4,1,0.,24.0,0.,24.0,0.,24.0,0.,24.0
1979-07-04 15:02:59.090 ,4,0,0.,24.0,0.,24.0,1.,24.0,0.,24.0
1979-07-04 15:03:23.090 ,5,1,0.,24.0,0.,24.0,1.,24.0,0.,24.0
1979-07-04 15:03:47.090 ,5,0,1.,24.0,0.,24.0,0.,24.0,0.,24.0
1979-07-04 15:04:11.090 ,6,1,0.,24.0,0.,24.0,0.,24.0,0.,24.0
1979-07-04 15:04:35.090 ,6,0,1.,24.0,0.,24.0,1.,24.0,0.,24.0
1979-07-04 15:04:59.090 ,7,1,4.,24.0,0.,24.0,1.,24.0,0.,24.0
1979-07-04 15:05:23.090 ,7,0,43.,24.0,0.,24.0,1.,24.0,0.,24.0
1979-07-04 15:05:47.090 ,7,1,32.,24.0,0.,24.0,0.,24.0,0.,24.0
1979-07-04 15:06:11.090 ,7,0,29.,24.0,0.,24.0,0.,24.0,0.,24.0
1979-07-04 15:06:35.090 ,6,1,27.,24.0,0.,24.0,1.,24.0,0.,24.0
1979-07-04 15:06:59.090 ,6,0,1.,24.0,0.,24.0,0.,24.0,0.,24.0
1979-07-04 15:07:23.090 ,5,1,0.,24.0,0.,24.0,1.,24.0,0.,24.0
1979-07-04 15:07:47.090 ,5,0,1.,24.0,0.,24.0,0.,24.0,0.,24.0
1979-07-04 15:08:11.090 ,4,1,1.,24.0,0.,24.0,1.,24.0,0.,24.0
1979-07-04 15:08:35.090 ,4,0,0.,24.0,0.,24.0,0.,24.0,0.,24.0
1979-07-04 15:08:59.090 ,3,1,0.,24.0,0.,24.0,0.,24.0,0.,24.0
1979-07-04 15:09:23.090 ,3,0,0.,24.0,0.,24.0,0.,24.0,0.,24.0
1979-07-04 15:09:47.090 ,2,1,0.,24.0,0.,24.0,0.,24.0,0.,24.0
1979-07-04 15:10:11.090 ,2,0,0.,24.0,0.,24.0,1.,24.0,0.,24.0
1979-07-04 15:10:35.090 ,1,1,1.,24.0,0.,24.0,1.,24.0,0.,24.0
1979-07-04 15:10:59.090 ,1,0,1.,24.0,0.,24.0,0.,24.0,0.,24.0
1979-07-04 15:11:23.090 ,0,1,0.,24.0,0.,24.0,0.,24.0,0.,24.0
1979-07-04 15:11:47.090 ,0,0,0.,24.0,0.,24.0,2.,24.0,0.,24.0
1979-07-04 15:12:11.090 ,0,1,0.,24.0,0.,24.0,2.,24.0,0.,24.0
1979-07-04 15:12:35.090 ,0,0,0.,24.0,0.,24.0,0.,24.0,0.,24.0
1979-07-04 15:12:59.090 ,1,1,0.,24.0,0.,24.0,1.,24.0,0.,24.0
1979-07-04 15:13:23.090 ,1,0,0.,24.0,0.,24.0,0.,24.0,0.,24.0
1979-07-04 15:13:47.090 ,2,1,0.,24.0,0.,24.0,2.,24.0,0.,24.0
1979-07-04 15:14:11.090 ,2,0,0.,24.0,1.,24.0,0.,24.0,0.,24.0
1979-07-04 15:14:35.090 ,3,1,0.,24.0,0.,24.0,1.,24.0,0.,24.0
1979-07-04 15:14:59.090 ,3,0,0.,24.0,0.,24.0,0.,24.0,0.,24.0
1979-07-04 15:15:23.090 ,4,1,0.,24.0,0.,24.0,0.,24.0,0.,24.0
1979-07-04 15:15:47.090 ,4,0,0.,24.0,0.,24.0,0.,24.0,0.,24.0
1979-07-04 15:16:11.090 ,5,1,0.,24.0,0.,24.0,1.,24.0,0.,24.0
1979-07-04 15:16:35.090 ,5,0,0.,24.0,0.,24.0,1.,24.0,0.,24.0
1979-07-04 15:16:59.090 ,6,1,0.,24.0,0.,24.0,0.,24.0,0.,24.0
1979-07-04 15:17:23.090 ,6,0,0.,24.0,0.,24.0,1.,24.0,0.,24.0
1979-07-04 15:17:47.090 ,7,1,11.,24.0,0.,24.0,0.,24.0,0.,24.0
1979-07-04 15:18:11.090 ,7,0,31.,24.0,0.,24.0,1.,24.0,0.,24.0
1979-07-04 15:18:35.090 ,7,1,40.,24.0,0.,24.0,0.,24.0,0.,24.0
1979-07-04 15:18:59.090 ,7,0,31.,24.0,0.,24.0,3.,24.0,0.,24.0
1979-07-04 15:19:23.090 ,6,1,19.,24.0,0.,24.0,0.,24.0,0.,24.0
1979-07-04 15:19:47.090 ,6,0,2.,24.0,0.,24.0,1.,24.0,0.,24.0
1979-07-04 15:20:11.090 ,5,1,0.,24.0,0.,24.0,1.,24.0,0.,24.0
1979-07-04 15:20:35.090 ,5,0,0.,24.0,1.,24.0,0.,24.0,0.,24.0
1979-07-04 15:20:59.090 ,4,1,0.,24.0,0.,24.0,0.,24.0,0.,24.0
1979-07-04 15:21:23.090 ,4,0,2.,24.0,1.,24.0,0.,24.0,0.,24.0
1979-07-04 15:21:47.090 ,3,1,0.,24.0,0.,24.0,2.,24.0,0.,24.0
1979-07-04 15:22:11.090 ,3,0,1.,24.0,0.,24.0,1.,24.0,0.,24.0
1979-07-04 15:22:35.090 ,2,1,0.,24.0,1.,24.0,1.,24.0,0.,24.0
1979-07-04 15:22:59.090 ,2,0,0.,24.0,0.,24.0,0.,24.0,0.,24.0
1979-07-04 15:23:23.090 ,1,1,0.,24.0,0.,24.0,0.,24.0,0.,24.0
1979-07-04 15:23:47.090 ,1,0,0.,24.0,0.,24.0,1.,24.0,0.,24.0
1979-07-04 15:24:11.090 ,0,1,0.,24.0,0.,24.0,1.,24.0,0.,24.0
1979-07-04 15:24:35.090 ,0,0,0.,24.0,0.,24.0,1.,24.0,0.,24.0
1979-07-04 15:24:59.090 ,0,1,0.,24.0,0.,24.0,0.,24.0,0.,24.0
1979-07-04 15:25:23.090 ,0,0,0.,24.0,0.,24.0,0.,24.0,0.,24.0
1979-07-04 15:25:47.090 ,1,1,0.,24.0,0.,24.0,1.,24.0,0.,24.0
1979-07-04 15:26:11.090 ,1,0,0.,24.0,0.,24.0,0.,24.0,0.,24.0
1979-07-04 15:26:35.090 ,2,1,0.,24.0,0.,24.0,1.,24.0,0.,24.0
1979-07-04 15:26:59.090 ,2,0,0.,24.0,0.,24.0,1.,24.0,0.,24.0
1979-07-04 15:27:23.090 ,3,1,0.,24.0,0.,24.0,1.,24.0,0.,24.0
1979-07-04 15:27:47.090 ,3,0,0.,24.0,0.,24.0,0.,24.0,0.,24.0
1979-07-04 15:28:11.090 ,4,1,0.,24.0,0.,24.0,2.,24.0,0.,24.0
1979-07-04 15:28:35.090 ,4,0,1.,24.0,0.,24.0,0.,24.0,0.,24.0
1979-07-04 15:28:59.090 ,5,1,0.,24.0,0.,24.0,2.,24.0,0.,24.0
1979-07-04 15:29:23.090 ,5,0,0.,24.0,0.,24.0,0.,24.0,0.,24.0
1979-07-04 15:29:47.090 ,6,1,2.,24.0,0.,24.0,1.,24.0,0.,24.0
1979-07-04 15:30:11.090 ,6,0,0.,24.0,0.,24.0,0.,24.0,0.,24.0
1979-07-04 15:30:35.090 ,7,0,5.,24.0,0.,24.0,0.,24.0,0.,24.0
1979-07-04 15:30:59.090 ,7,0,28.,24.0,0.,24.0,0.,24.0,0.,24.0
1979-07-04 15:31:23.090 ,5,1,13.,24.0,0.,24.0,1.,24.0,0.,24.0
1979-07-04 15:31:47.090 ,1,1,0.,24.0,0.,24.0,0.,24.0,0.,24.0
1979-07-04 15:32:11.090 ,2,1,0.,24.0,0.,24.0,1.,24.0,0.,24.0
1979-07-04 15:32:35.090 ,6,1,0.,24.0,0.,24.0,1.,24.0,0.,24.0
1979-07-04 15:32:59.090 ,5,1,16.,24.0,0.,24.0,1.,24.0,0.,24.0
1979-07-04 15:33:23.090 ,1,1,0.,24.0,0.,24.0,1.,24.0,0.,24.0
1979-07-04 15:33:47.090 ,2,1,2.,24.0,0.,24.0,0.,24.0,0.,24.0
1979-07-04 15:34:11.090 ,6,1,0.,24.0,0.,24.0,0.,24.0,0.,24.0
1979-07-04 15:34:35.090 ,5,1,17.,24.0,0.,24.0,0.,24.0,0.,24.0
1979-07-04 15:34:59.090 ,1,1,0.,24.0,0.,24.0,2.,24.0,0.,24.0
1979-07-04 15:35:23.090 ,2,1,0.,24.0,0.,24.0,0.,24.0,0.,24.0
1979-07-04 15:35:47.090 ,6,1,0.,24.0,0.,24.0,1.,24.0,0.,24.0
1979-07-04 15:36:11.090 ,5,1,12.,24.0,0.,24.0,0.,24.0,0.,24.0
1979-07-04 15:36:35.090 ,1,1,0.,24.0,0.,24.0,0.,24.0,0.,24.0
1979-07-04 15:36:59.090 ,2,1,0.,24.0,0.,24.0,0.,24.0,0.,24.0
1979-07-04 15:37:23.090 ,6,1,0.,24.0,0.,24.0,2.,24.0,0.,24.0
1979-07-04 15:37:47.090 ,5,1,13.,24.0,0.,24.0,1.,24.0,0.,24.0
1979-07-04 15:38:11.090 ,1,1,0.,24.0,0.,24.0,2.,24.0,0.,24.0
1979-07-04 15:38:35.090 ,2,1,1.,24.0,0.,24.0,0.,24.0,0.,24.0
1979-07-04 15:38:59.090 ,6,1,1.,24.0,0.,24.0,0.,24.0,0.,24.0
1979-07-04 15:39:23.090 ,5,1,15.,24.0,0.,24.0,0.,24.0,0.,24.0
1979-07-04 15:39:47.090 ,1,1,0.,24.0,0.,24.0,0.,24.0,0.,24.0
1979-07-04 15:40:11.090 ,2,1,0.,24.0,1.,24.0,0.,24.0,0.,24.0
1979-07-04 15:40:35.090 ,6,1,0.,24.0,0.,24.0,0.,24.0,0.,24.0
1979-07-04 15:40:59.090 ,5,1,18.,24.0,0.,24.0,0.,24.0,0.,24.0
1979-07-04 15:41:23.090 ,0,0,0.,24.0,0.,24.0,3.,24.0,0.,24.0
1979-07-04 15:41:52.490 ,0,0,0.,24.0,0.,24.0,1.,24.0,0.,24.0
1979-07-04 15:42:11.090 ,0,0,0.,24.0,0.,24.0,1.,24.0,0.,24.0
1979-07-04 15:42:35.090 ,5,1,13.,24.0,0.,24.0,0.,24.0,0.,24.0
1979-07-04 15:42:59.090 ,5,0,1.,24.0,0.,24.0,2.,24.0,0.,24.0
1979-07-04 15:43:23.090 ,4,1,0.,24.0,1.,24.0,0.,24.0,0.,24.0
1979-07-04 15:43:47.090 ,4,0,1.,24.0,0.,24.0,2.,24.0,0.,24.0
1979-07-04 15:44:11.090 ,3,1,0.,24.0,0.,24.0,0.,24.0,0.,24.0
1979-07-04 15:44:35.090 ,3,0,0.,24.0,0.,24.0,0.,24.0,0.,24.0
1979-07-04 15:44:59.090 ,2,1,0.,24.0,0.,24.0,0.,24.0,0.,24.0
1979-07-04 15:45:23.090 ,2,0,0.,24.0,0.,24.0,1.,24.0,0.,24.0
1979-07-04 15:45:47.090 ,1,1,1.,24.0,0.,24.0,1.,24.0,0.,24.0
1979-07-04 15:46:11.090 ,1,0,0.,24.0,0.,24.0,0.,24.0,0.,24.0
1979-07-04 15:46:35.090 ,0,1,0.,24.0,0.,24.0,2.,24.0,0.,24.0
1979-07-04 15:46:59.090 ,0,0,0.,24.0,1.,24.0,0.,24.0,0.,24.0
1979-07-04 15:47:23.090 ,0,1,0.,24.0,0.,24.0,0.,24.0,0.,24.0
1979-07-04 15:47:47.090 ,0,0,0.,24.0,0.,24.0,0.,24.0,0.,24.0
1979-07-04 15:48:11.090 ,1,1,1.,24.0,1.,24.0,0.,24.0,0.,24.0
1979-07-04 15:48:35.090 ,1,0,0.,24.0,0.,24.0,0.,24.0,0.,24.0
1979-07-04 15:48:59.090 ,2,1,1.,24.0,0.,24.0,1.,24.0,0.,24.0
1979-07-04 15:49:23.090 ,2,0,0.,24.0,0.,24.0,0.,24.0,0.,24.0
1979-07-04 15:49:47.090 ,3,1,0.,24.0,0.,24.0,0.,24.0,0.,24.0
1979-07-04 15:50:11.090 ,3,0,0.,24.0,1.,24.0,2.,24.0,0.,24.0
1979-07-04 15:50:35.090 ,4,1,0.,24.0,0.,24.0,0.,24.0,0.,24.0
1979-07-04 15:50:59.090 ,4,0,0.,24.0,0.,24.0,0.,24.0,0.,24.0
1979-07-04 15:51:23.090 ,5,1,0.,24.0,0.,24.0,0.,24.0,0.,24.0
1979-07-04 15:51:47.090 ,5,0,0.,24.0,0.,24.0,2.,24.0,0.,24.0
1979-07-04 15:52:11.090 ,6,1,1.,24.0,0.,24.0,1.,24.0,0.,24.0
1979-07-04 15:52:35.090 ,6,0,1.,24.0,0.,24.0,0.,24.0,0.,24.0
1979-07-04 15:52:59.090 ,7,1,4.,24.0,0.,24.0,0.,24.0,0.,24.0
1979-07-04 15:53:23.090 ,7,0,20.,24.0,0.,24.0,0.,24.0,0.,24.0
1979-07-04 15:53:47.090 ,7,1,29.,24.0,0.,24.0,0.,24.0,0.,24.0
1979-07-04 15:54:11.090 ,7,0,21.,24.0,0.,24.0,2.,24.0,0.,24.0
1979-07-04 15:54:35.090 ,6,1,16.,24.0,0.,24.0,0.,24.0,0.,24.0
1979-07-04 15:54:59.090 ,6,0,1.,24.0,0.,24.0,0.,24.0,0.,24.0
1979-07-04 15:55:23.090 ,5,1,0.,24.0,0.,24.0,0.,24.0,0.,24.0
1979-07-04 15:55:47.090 ,5,0,1.,24.0,0.,24.0,0.,24.0,0.,24.0
1979-07-04 15:56:11.090 ,4,1,0.,24.0,0.,24.0,2.,24.0,0.,24.0
1979-07-04 15:56:35.090 ,4,0,0.,24.0,0.,24.0,0.,24.0,0.,24.0
1979-07-04 15:56:59.090 ,3,1,0.,24.0,0.,24.0,0.,24.0,0.,24.0
1979-07-04 15:57:23.090 ,3,0,0.,24.0,0.,24.0,2.,24.0,0.,24.0
1979-07-04 15:57:47.090 ,2,1,0.,24.0,0.,24.0,2.,24.0,0.,24.0
1979-07-04 15:58:11.090 ,2,0,0.,24.0,0.,24.0,1.,24.0,0.,24.0
1979-07-04 15:58:35.090 ,1,1,0.,24.0,0.,24.0,0.,24.0,0.,24.0
1979-07-04 15:58:59.090 ,1,0,0.,24.0,0.,24.0,3.,24.0,0.,24.0
1979-07-04 15:59:23.090 ,0,1,0.,24.0,0.,24.0,0.,24.0,0.,24.0
1979-07-04 15:59:47.090 ,0,0,0.,24.0,0.,24.0,2.,24.0,0.,24.0
1979-07-04 16:00:11.090 ,0,1,0.,24.0,0.,24.0,0.,24.0,0.,24.0
1979-07-04 16:00:35.090 ,0,0,0.,24.0,0.,24.0,1.,24.0,0.,24.0
1979-07-04 16:00:59.090 ,1,1,0.,24.0,0.,24.0,3.,24.0,0.,24.0
1979-07-04 16:01:23.090 ,1,0,1.,24.0,0.,24.0,1.,24.0,0.,24.0
1979-07-04 16:01:47.090 ,2,1,0.,24.0,0.,24.0,0.,24.0,0.,24.0
1979-07-04 16:02:11.090 ,2,0,0.,24.0,0.,24.0,0.,24.0,0.,24.0
1979-07-04 16:02:35.090 ,3,1,0.,24.0,0.,24.0,0.,24.0,0.,24.0
1979-07-04 16:02:59.090 ,3,0,0.,24.0,0.,24.0,2.,24.0,0.,24.0
1979-07-04 16:03:23.090 ,4,1,2.,24.0,0.,24.0,0.,24.0,0.,24.0
1979-07-04 16:03:47.090 ,0,0,1.,24.0,0.,24.0,0.,24.0,0.,24.0
1979-07-04 16:04:09.290 ,0,0,,0,,0,,0,,0
1979-07-04 16:04:11.090 ,5,1,0.,24.0,0.,24.0,0.,24.0,0.,24.0
1979-07-04 16:04:35.090 ,5,0,3.,24.0,0.,24.0,1.,24.0,0.,24.0
1979-07-04 16:04:59.090 ,6,1,0.,24.0,0.,24.0,1.,24.0,0.,24.0
1979-07-04 16:05:23.090 ,6,0,0.,24.0,1.,24.0,0.,24.0,0.,24.0
1979-07-04 16:05:47.090 ,7,1,10.,24.0,0.,24.0,0.,24.0,0.,24.0
1979-07-04 16:06:11.090 ,0,0,30.,24.0,0.,24.0,0.,24.0,0.,24.0
1979-07-04 16:06:36.890 ,7,1,29.,24.0,0.,24.0,0.,24.0,0.,24.0
1979-07-04 16:06:59.090 ,7,0,38.,24.0,0.,24.0,0.,24.0,0.,24.0
1979-07-04 16:07:23.090 ,6,1,29.,24.0,0.,24.0,0.,24.0,0.,24.0
1979-07-04 16:07:47.090 ,6,0,0.,24.0,0.,24.0,0.,24.0,0.,24.0
1979-07-04 16:08:11.090 ,5,1,0.,24.0,1.,24.0,1.,24.0,0.,24.0
1979-07-04 16:08:35.090 ,5,0,0.,24.0,0.,24.0,1.,24.0,0.,24.0
1979-07-04 16:08:59.090 ,4,1,0.,24.0,0.,24.0,1.,24.0,0.,24.0
1979-07-04 16:09:23.090 ,4,0,0.,24.0,0.,24.0,2.,24.0,0.,24.0
1979-07-04 16:09:47.090 ,3,1,0.,24.0,0.,24.0,1.,24.0,0.,24.0
1979-07-04 16:10:11.090 ,3,0,0.,24.0,0.,24.0,0.,24.0,0.,24.0
1979-07-04 16:10:35.090 ,2,1,0.,24.0,0.,24.0,0.,24.0,0.,24.0
1979-07-04 16:10:59.090 ,2,0,0.,24.0,0.,24.0,0.,24.0,0.,24.0
1979-07-04 16:11:23.090 ,1,1,0.,24.0,0.,24.0,1.,24.0,0.,24.0
1979-07-04 16:11:47.090 ,1,0,0.,24.0,0.,24.0,0.,24.0,0.,24.0
1979-07-04 16:12:11.090 ,0,1,0.,24.0,0.,24.0,1.,24.0,0.,24.0
1979-07-04 16:12:35.090 ,0,0,0.,24.0,0.,24.0,0.,24.0,0.,24.0
1979-07-04 16:12:59.090 ,0,1,0.,24.0,0.,24.0,0.,24.0,0.,24.0
1979-07-04 16:13:23.090 ,0,0,0.,24.0,0.,24.0,0.,24.0,0.,24.0
1979-07-04 16:13:47.090 ,1,1,0.,24.0,0.,24.0,0.,24.0,0.,24.0
1979-07-04 16:14:11.090 ,1,0,0.,24.0,0.,24.0,1.,24.0,0.,24.0
1979-07-04 16:14:35.090 ,2,1,0.,24.0,0.,24.0,3.,24.0,0.,24.0
1979-07-04 16:14:59.090 ,2,0,0.,24.0,0.,24.0,1.,24.0,0.,24.0
1979-07-04 16:15:23.090 ,3,1,0.,24.0,0.,24.0,1.,24.0,0.,24.0
1979-07-04 16:15:47.090 ,3,0,0.,24.0,0.,24.0,0.,24.0,0.,24.0
1979-07-04 16:16:11.090 ,4,1,0.,24.0,0.,24.0,0.,24.0,0.,24.0
1979-07-04 16:16:35.090 ,4,0,0.,24.0,0.,24.0,0.,24.0,0.,24.0
1979-07-04 16:16:59.090 ,5,1,0.,24.0,1.,24.0,0.,24.0,0.,24.0
1979-07-04 16:17:23.090 ,5,0,1.,24.0,0.,24.0,0.,24.0,0.,24.0
1979-07-04 16:17:47.090 ,6,1,1.,24.0,0.,24.0,0.,24.0,0.,24.0
1979-07-04 16:18:11.090 ,6,0,0.,24.0,0.,24.0,1.,24.0,0.,24.0
1979-07-04 16:18:35.090 ,7,0,4.,24.0,0.,24.0,0.,24.0,0.,24.0
1979-07-04 16:18:59.090 ,7,0,26.,24.0,0.,24.0,0.,24.0,0.,24.0
1979-07-04 16:19:23.090 ,5,1,15.,24.0,0.,24.0,0.,24.0,0.,24.0
1979-07-04 16:19:47.090 ,1,1,1.,24.0,0.,24.0,2.,24.0,0.,24.0
1979-07-04 16:20:11.090 ,2,1,0.,24.0,1.,24.0,1.,24.0,0.,24.0
1979-07-04 16:20:35.090 ,6,1,0.,24.0,1.,24.0,0.,24.0,0.,24.0
1979-07-04 16:20:59.090 ,5,1,13.,24.0,0.,24.0,0.,24.0,0.,24.0
1979-07-04 16:21:23.090 ,1,1,1.,24.0,0.,24.0,0.,24.0,0.,24.0
1979-07-04 16:21:47.090 ,2,1,0.,24.0,0.,24.0,2.,24.0,0.,24.0
1979-07-04 16:22:11.090 ,6,1,1.,24.0,0.,24.0,2.,24.0,0.,24.0
1979-07-04 16:22:35.090 ,5,1,15.,24.0,0.,24.0,0.,24.0,0.,24.0
1979-07-04 16:22:59.090 ,1,1,0.,24.0,0.,24.0,0.,24.0,0.,24.0
1979-07-04 16:23:23.090 ,2,1,0.,24.0,0.,24.0,0.,24.0,0.,24.0
1979-07-04 16:23:47.090 ,6,1,0.,24.0,0.,24.0,1.,24.0,0.,24.0
1979-07-04 16:24:11.090 ,5,1,10.,24.0,0.,24.0,0.,24.0,0.,24.0
1979-07-04 16:24:35.090 ,1,1,0.,24.0,0.,24.0,5.,24.0,0.,24.0
1979-07-04 16:24:59.090 ,2,1,1.,24.0,0.,24.0,1.,24.0,0.,24.0
1979-07-04 16:25:23.090 ,6,1,1.,24.0,0.,24.0,1.,24.0,0.,24.0
1979-07-04 16:25:47.090 ,5,1,16.,24.0,0.,24.0,0.,24.0,0.,24.0
1979-07-04 16:26:11.090 ,1,1,0.,24.0,0.,24.0,1.,24.0,0.,24.0
1979-07-04 16:26:35.090 ,2,1,0.,24.0,0.,24.0,0.,24.0,0.,24.0
1979-07-04 16:26:59.090 ,6,1,1.,24.0,0.,24.0,1.,24.0,0.,24.0
1979-07-04 16:27:23.090 ,5,1,15.,24.0,0.,24.0,0.,24.0,0.,24.0
1979-07-04 16:27:47.090 ,1,1,0.,24.0,0.,24.0,0.,24.0,0.,24.0
1979-07-04 16:28:11.090 ,2,1,0.,24.0,0.,24.0,1.,24.0,0.,24.0
1979-07-04 16:28:35.090 ,6,1,1.,24.0,0.,24.0,0.,24.0,0.,24.0
1979-07-04 16:28:59.090 ,5,1,18.,24.0,0.,24.0,1.,24.0,0.,24.0
1979-07-04 16:29:23.090 ,1,1,1.,24.0,0.,24.0,0.,24.0,0.,24.0
1979-07-04 16:29:47.090 ,0,0,0.,24.0,0.,24.0,1.,24.0,0.,24.0
1979-07-04 16:30:11.090 ,0,0,0.,24.0,0.,24.0,1.,24.0,0.,24.0
1979-07-04 16:30:35.090 ,5,1,13.,24.0,0.,24.0,0.,24.0,0.,24.0
1979-07-04 16:30:59.090 ,5,0,0.,24.0,0.,24.0,1.,24.0,0.,24.0
1979-07-04 16:31:23.090 ,4,1,0.,24.0,0.,24.0,0.,24.0,0.,24.0
1979-07-04 16:31:47.090 ,4,0,0.,24.0,0.,24.0,1.,24.0,0.,24.0
1979-07-04 16:32:11.090 ,3,1,0.,24.0,0.,24.0,0.,24.0,0.,24.0
1979-07-04 16:32:35.090 ,3,0,1.,24.0,0.,24.0,0.,24.0,0.,24.0
1979-07-04 16:32:59.090 ,2,1,0.,24.0,0.,24.0,0.,24.0,0.,24.0
1979-07-04 16:33:23.090 ,2,0,0.,24.0,0.,24.0,0.,24.0,0.,24.0
1979-07-04 16:33:47.090 ,1,1,0.,24.0,0.,24.0,0.,24.0,0.,24.0
1979-07-04 16:34:11.090 ,1,0,0.,24.0,0.,24.0,0.,24.0,0.,24.0
1979-07-04 16:34:35.090 ,0,1,0.,24.0,0.,24.0,0.,24.0,0.,24.0
1979-07-04 16:34:59.090 ,0,0,0.,24.0,0.,24.0,0.,24.0,0.,24.0
1979-07-04 16:35:23.090 ,0,1,1.,24.0,0.,24.0,0.,24.0,0.,24.0
1979-07-04 16:35:47.090 ,0,0,0.,24.0,0.,24.0,0.,24.0,0.,24.0
1979-07-04 16:36:11.090 ,1,1,0.,24.0,0.,24.0,2.,24.0,0.,24.0
1979-07-04 16:36:35.090 ,1,0,0.,24.0,0.,24.0,1.,24.0,0.,24.0
1979-07-04 16:36:59.090 ,2,1,0.,24.0,0.,24.0,2.,24.0,0.,24.0
1979-07-04 16:37:23.090 ,2,0,0.,24.0,0.,24.0,1.,24.0,0.,24.0
1979-07-04 16:37:47.090 ,3,1,0.,24.0,0.,24.0,0.,24.0,0.,24.0
1979-07-04 16:38:11.090 ,3,0,1.,24.0,0.,24.0,0.,24.0,0.,24.0
1979-07-04 16:38:35.090 ,4,1,0.,24.0,0.,24.0,1.,24.0,0.,24.0
1979-07-04 16:38:59.090 ,4,0,0.,24.0,0.,24.0,2.,24.0,0.,24.0
1979-07-04 16:39:23.090 ,5,1,0.,24.0,0.,24.0,0.,24.0,0.,24.0
1979-07-04 16:39:47.090 ,5,0,1.,24.0,0.,24.0,0.,24.0,0.,24.0
1979-07-04 16:40:11.090 ,6,1,0.,24.0,0.,24.0,0.,24.0,0.,24.0
1979-07-04 16:40:35.090 ,6,0,0.,24.0,0.,24.0,0.,24.0,0.,24.0
1979-07-04 16:40:59.090 ,7,1,13.,24.0,0.,24.0,1.,24.0,0.,24.0
1979-07-04 16:41:23.090 ,7,0,29.,24.0,0.,24.0,0.,24.0,0.,24.0
1979-07-04 16:41:47.090 ,7,1,27.,24.0,0.,24.0,0.,24.0,0.,24.0
1979-07-04 16:42:11.090 ,7,0,52.,24.0,0.,24.0,3.,24.0,0.,24.0
1979-07-04 16:42:35.090 ,6,1,20.,24.0,0.,24.0,1.,24.0,0.,24.0
1979-07-04 16:42:59.090 ,6,0,0.,24.0,0.,24.0,0.,24.0,0.,24.0
1979-07-04 16:43:23.090 ,5,1,0.,24.0,1.,24.0,0.,24.0,0.,24.0
1979-07-04 16:43:47.090 ,5,0,1.,24.0,0.,24.0,0.,24.0,0.,24.0
1979-07-04 16:44:11.090 ,4,1,0.,24.0,0.,24.0,0.,24.0,0.,24.0
1979-07-04 16:44:35.090 ,4,0,0.,24.0,0.,24.0,1.,24.0,0.,24.0
1979-07-04 16:44:59.090 ,3,1,1.,24.0,0.,24.0,0.,24.0,0.,24.0
1979-07-04 16:45:23.090 ,3,0,0.,24.0,0.,24.0,0.,24.0,0.,24.0
1979-07-04 16:45:47.090 ,2,1,0.,24.0,0.,24.0,1.,24.0,0.,24.0
1979-07-04 16:46:11.090 ,2,0,0.,24.0,0.,24.0,1.,24.0,0.,24.0
1979-07-04 16:46:35.090 ,1,1,0.,24.0,0.,24.0,2.,24.0,0.,24.0
1979-07-04 16:46:59.090 ,1,0,0.,24.0,0.,24.0,0.,24.0,0.,24.0
1979-07-04 16:47:23.090 ,0,1,0.,24.0,0.,24.0,1.,24.0,0.,24.0
1979-07-04 16:47:47.090 ,0,0,1.,24.0,0.,24.0,1.,24.0,0.,24.0
1979-07-04 16:48:11.090 ,0,1,1.,24.0,0.,24.0,0.,24.0,0.,24.0
1979-07-04 16:48:35.090 ,0,0,0.,24.0,0.,24.0,1.,24.0,0.,24.0
1979-07-04 16:48:59.090 ,1,1,0.,24.0,0.,24.0,2.,24.0,0.,24.0
1979-07-04 16:49:23.090 ,1,0,1.,24.0,0.,24.0,1.,24.0,0.,24.0
1979-07-04 16:49:47.090 ,2,1,1.,24.0,0.,24.0,0.,24.0,0.,24.0
1979-07-04 16:50:11.090 ,2,0,0.,24.0,0.,24.0,0.,24.0,0.,24.0
1979-07-04 16:50:35.090 ,3,1,0.,24.0,0.,24.0,2.,24.0,0.,24.0
1979-07-04 16:50:59.090 ,3,0,0.,24.0,0.,24.0,0.,24.0,0.,24.0
1979-07-04 16:51:23.090 ,4,1,0.,24.0,0.,24.0,0.,24.0,0.,24.0
1979-07-04 16:51:47.090 ,4,0,0.,24.0,1.,24.0,0.,24.0,0.,24.0
1979-07-04 16:52:11.090 ,5,1,1.,24.0,0.,24.0,0.,24.0,0.,24.0
1979-07-04 16:52:35.090 ,5,0,0.,24.0,0.,24.0,0.,24.0,0.,24.0
1979-07-04 16:52:59.090 ,6,1,0.,24.0,0.,24.0,0.,24.0,0.,24.0
1979-07-04 16:53:23.090 ,6,0,0.,24.0,0.,24.0,0.,24.0,0.,24.0
1979-07-04 16:53:47.090 ,7,1,8.,24.0,0.,24.0,0.,24.0,0.,24.0
1979-07-04 16:54:11.090 ,7,0,22.,24.0,0.,24.0,0.,24.0,0.,24.0
1979-07-04 16:54:35.090 ,7,1,33.,24.0,0.,24.0,0.,24.0,0.,24.0
1979-07-04 16:54:59.090 ,7,0,38.,24.0,0.,24.0,0.,24.0,0.,24.0
1979-07-04 16:55:23.090 ,6,1,30.,24.0,0.,24.0,2.,24.0,0.,24.0
1979-07-04 16:55:47.090 ,6,0,1.,24.0,0.,24.0,1.,24.0,0.,24.0
1979-07-04 16:56:11.090 ,5,1,0.,24.0,0.,24.0,3.,24.0,0.,24.0
1979-07-04 16:56:35.090 ,5,0,0.,24.0,0.,24.0,1.,24.0,0.,24.0
1979-07-04 16:56:59.090 ,4,1,0.,24.0,0.,24.0,1.,24.0,0.,24.0
1979-07-04 16:57:23.090 ,4,0,1.,24.0,0.,24.0,1.,24.0,0.,24.0
1979-07-04 16:57:47.090 ,3,1,0.,24.0,0.,24.0,0.,24.0,0.,24.0
1979-07-04 16:58:11.090 ,3,0,0.,24.0,0.,24.0,0.,24.0,0.,24.0
1979-07-04 16:58:35.090 ,2,1,0.,24.0,0.,24.0,0.,24.0,0.,24.0
1979-07-04 16:58:59.090 ,2,0,0.,24.0,0.,24.0,0.,24.0,0.,24.0
1979-07-04 16:59:23.090 ,1,1,0.,24.0,0.,24.0,0.,24.0,0.,24.0
1979-07-04 16:59:47.090 ,1,0,0.,24.0,0.,24.0,1.,24.0,0.,24.0
1979-07-04 17:00:11.090 ,0,1,0.,24.0,0.,24.0,2.,24.0,0.,24.0
1979-07-04 17:00:35.090 ,0,0,0.,24.0,0.,24.0,0.,24.0,0.,24.0
1979-07-04 17:00:59.090 ,0,1,0.,24.0,0.,24.0,0.,24.0,0.,24.0
1979-07-04 17:01:23.090 ,0,0,0.,24.0,0.,24.0,2.,24.0,0.,24.0
1979-07-04 17:01:47.090 ,1,1,0.,24.0,0.,24.0,0.,24.0,0.,24.0
1979-07-04 17:02:11.090 ,1,0,0.,24.0,0.,24.0,0.,24.0,0.,24.0
1979-07-04 17:02:35.090 ,2,1,0.,24.0,0.,24.0,2.,24.0,0.,24.0
1979-07-04 17:02:59.090 ,2,0,0.,24.0,0.,24.0,0.,24.0,0.,24.0
1979-07-04 17:03:23.090 ,3,1,0.,24.0,0.,24.0,1.,24.0,0.,24.0
1979-07-04 17:03:47.090 ,3,0,0.,24.0,0.,24.0,1.,24.0,0.,24.0
1979-07-04 17:04:11.090 ,4,1,0.,24.0,0.,24.0,0.,24.0,0.,24.0
1979-07-04 17:04:35.090 ,4,0,0.,24.0,0.,24.0,0.,24.0,0.,24.0
1979-07-04 17:04:59.090 ,5,1,0.,24.0,0.,24.0,2.,24.0,0.,24.0
1979-07-04 17:05:23.090 ,5,0,0.,24.0,0.,24.0,0.,24.0,0.,24.0
1979-07-04 17:05:47.090 ,6,1,0.,24.0,0.,24.0,0.,24.0,0.,24.0
1979-07-04 17:06:11.090 ,6,0,1.,24.0,0.,24.0,0.,24.0,0.,24.0
1979-07-04 17:06:35.090 ,7,0,5.,24.0,0.,24.0,0.,24.0,0.,24.0
1979-07-04 17:06:59.090 ,7,0,24.,24.0,0.,24.0,4.,24.0,0.,24.0
1979-07-04 17:07:23.090 ,5,1,16.,24.0,0.,24.0,3.,24.0,0.,24.0
1979-07-04 17:07:47.090 ,1,1,0.,24.0,0.,24.0,0.,24.0,0.,24.0
1979-07-04 17:08:11.090 ,2,1,0.,24.0,0.,24.0,0.,24.0,0.,24.0
1979-07-04 17:08:35.090 ,6,1,0.,24.0,0.,24.0,1.,24.0,0.,24.0
1979-07-04 17:08:59.090 ,5,1,11.,24.0,0.,24.0,0.,24.0,0.,24.0
1979-07-04 17:09:23.090 ,1,1,0.,24.0,0.,24.0,0.,24.0,0.,24.0
1979-07-04 17:09:47.090 ,2,1,0.,24.0,0.,24.0,0.,24.0,0.,24.0
1979-07-04 17:10:11.090 ,6,1,2.,24.0,0.,24.0,2.,24.0,0.,24.0
1979-07-04 17:10:35.090 ,5,1,14.,24.0,0.,24.0,0.,24.0,0.,24.0
1979-07-04 17:10:59.090 ,1,1,0.,24.0,0.,24.0,1.,24.0,0.,24.0
1979-07-04 17:11:23.090 ,2,1,0.,24.0,0.,24.0,1.,24.0,0.,24.0
1979-07-04 17:11:47.090 ,6,1,0.,24.0,0.,24.0,0.,24.0,0.,24.0
1979-07-04 17:12:11.090 ,5,1,24.,24.0,0.,24.0,2.,24.0,0.,24.0
1979-07-04 17:12:35.090 ,1,1,1.,24.0,0.,24.0,1.,24.0,0.,24.0
1979-07-04 17:12:59.090 ,2,1,0.,24.0,0.,24.0,1.,24.0,0.,24.0
1979-07-04 17:13:23.090 ,6,1,0.,24.0,0.,24.0,1.,24.0,0.,24.0
1979-07-04 17:13:47.090 ,5,1,12.,24.0,0.,24.0,1.,24.0,0.,24.0
1979-07-04 17:14:11.090 ,1,1,0.,24.0,0.,24.0,0.,24.0,0.,24.0
1979-07-04 17:14:35.090 ,2,1,0.,24.0,0.,24.0,1.,24.0,0.,24.0
1979-07-04 17:14:59.090 ,6,1,0.,24.0,0.,24.0,2.,24.0,0.,24.0
1979-07-04 17:15:23.090 ,5,1,16.,24.0,0.,24.0,2.,24.0,0.,24.0
1979-07-04 17:15:47.090 ,1,1,0.,24.0,0.,24.0,0.,24.0,0.,24.0
1979-07-04 17:16:11.090 ,2,1,0.,24.0,0.,24.0,1.,24.0,0.,24.0
1979-07-04 17:16:35.090 ,6,1,0.,24.0,0.,24.0,0.,24.0,0.,24.0
1979-07-04 17:16:59.090 ,5,1,21.,24.0,0.,24.0,0.,24.0,0.,24.0
1979-07-04 17:17:23.090 ,1,1,0.,24.0,1.,24.0,2.,24.0,0.,24.0
1979-07-04 17:17:47.090 ,0,0,0.,24.0,0.,24.0,3.,24.0,0.,24.0
1979-07-04 17:18:11.090 ,0,0,0.,24.0,0.,24.0,0.,24.0,0.,24.0
1979-07-04 17:18:35.090 ,5,1,21.,24.0,0.,24.0,0.,24.0,0.,24.0
1979-07-04 17:18:59.090 ,5,0,0.,24.0,0.,24.0,1.,24.0,0.,24.0
1979-07-04 17:19:23.090 ,4,1,0.,24.0,0.,24.0,0.,24.0,0.,24.0
1979-07-04 17:19:47.090 ,4,0,0.,24.0,0.,24.0,1.,24.0,0.,24.0
1979-07-04 17:20:11.090 ,3,1,0.,24.0,0.,24.0,0.,24.0,0.,24.0
1979-07-04 17:20:35.090 ,3,0,0.,24.0,0.,24.0,0.,24.0,0.,24.0
1979-07-04 17:20:59.090 ,2,1,0.,24.0,0.,24.0,1.,24.0,0.,24.0
1979-07-04 17:21:23.090 ,2,0,0.,24.0,0.,24.0,0.,24.0,0.,24.0
1979-07-04 17:21:47.090 ,1,1,0.,24.0,0.,24.0,0.,24.0,0.,24.0
1979-07-04 17:22:11.090 ,1,0,0.,24.0,0.,24.0,0.,24.0,0.,24.0
1979-07-04 17:22:35.090 ,0,1,0.,24.0,0.,24.0,1.,24.0,0.,24.0
1979-07-04 17:22:59.090 ,0,0,0.,24.0,0.,24.0,1.,24.0,0.,24.0
1979-07-04 17:23:23.090 ,0,1,0.,24.0,0.,24.0,1.,24.0,0.,24.0
1979-07-04 17:23:47.090 ,0,0,1.,24.0,0.,24.0,0.,24.0,0.,24.0
1979-07-04 17:24:11.090 ,1,1,0.,24.0,0.,24.0,2.,24.0,0.,24.0
1979-07-04 17:24:35.090 ,1,0,0.,24.0,0.,24.0,0.,24.0,0.,24.0
1979-07-04 17:24:59.090 ,2,1,0.,24.0,0.,24.0,0.,24.0,0.,24.0
1979-07-04 17:25:23.090 ,2,0,1.,24.0,0.,24.0,0.,24.0,0.,24.0
1979-07-04 17:25:47.090 ,3,1,0.,24.0,0.,24.0,2.,24.0,0.,24.0
1979-07-04 17:26:11.090 ,3,0,0.,24.0,0.,24.0,2.,24.0,0.,24.0
1979-07-04 17:26:35.090 ,4,1,0.,24.0,0.,24.0,2.,24.0,0.,24.0
1979-07-04 17:26:59.090 ,4,0,0.,24.0,0.,24.0,1.,24.0,0.,24.0
1979-07-04 17:27:23.090 ,5,1,1.,24.0,0.,24.0,3.,24.0,0.,24.0
1979-07-04 17:27:47.090 ,5,0,2.,24.0,0.,24.0,1.,24.0,0.,24.0
1979-07-04 17:28:11.090 ,6,1,0.,24.0,0.,24.0,0.,24.0,0.,24.0
1979-07-04 17:28:35.090 ,6,0,0.,24.0,1.,24.0,1.,24.0,0.,24.0
1979-07-04 17:28:59.090 ,7,1,4.,24.0,0.,24.0,0.,24.0,0.,24.0
1979-07-04 17:29:23.090 ,7,0,38.,24.0,0.,24.0,1.,24.0,0.,24.0
1979-07-04 17:29:47.090 ,7,1,33.,24.0,0.,24.0,0.,24.0,0.,24.0
1979-07-04 17:30:11.090 ,7,0,31.,24.0,0.,24.0,2.,24.0,0.,24.0
1979-07-04 17:30:35.090 ,6,1,23.,24.0,0.,24.0,1.,24.0,0.,24.0
1979-07-04 17:30:59.090 ,6,0,0.,24.0,0.,24.0,1.,24.0,0.,24.0
1979-07-04 17:31:23.090 ,5,1,0.,24.0,1.,24.0,0.,24.0,0.,24.0
1979-07-04 17:31:47.090 ,5,0,1.,24.0,0.,24.0,1.,24.0,0.,24.0
1979-07-04 17:32:11.090 ,4,1,0.,24.0,0.,24.0,2.,24.0,0.,24.0
1979-07-04 17:32:35.090 ,4,0,0.,24.0,0.,24.0,1.,24.0,0.,24.0
1979-07-04 17:32:59.090 ,3,1,0.,24.0,0.,24.0,0.,24.0,0.,24.0
1979-07-04 17:33:23.090 ,3,0,0.,24.0,0.,24.0,0.,24.0,0.,24.0
1979-07-04 17:33:47.090 ,2,1,0.,24.0,0.,24.0,1.,24.0,0.,24.0